[[{"header":{"parameterUnit":"m.s-1","parameterCategory":1,"la1":30.2991,"la2":30.254,"lo1":-89.0895,"lo2":-89.0444,"dx":0.0017,"dy":0.0017,"nx":28,"ny":28,"refTime":"2023-01-23T03:00:00:Z","depth":0,"parameterNumber":2,"parameterNumberName":"U-component_of_WINDS"},"data":[0,0,0,0,0,0,0,0,0,0,0,0,0,0,0,0,0,0,0,0,0,0,0,0,0,0,0,0,0,0,0,0,0,0,0,0,0,0,0,0,0,0,0,0,0,0,0,0,0,0,0,0,0,0,0,0,0,0,3.9986,3.9989,0,4.0228,4.0231,4.0234,4.0215,4.0212,4.0208,4.0204,4.0461,4.047,4.0481,0,0,0,0,0,0,0,0,0,0,0,0,0,3.9518,3.9527,3.9986,3.9989,3.9992,4.0228,4.0231,4.0234,4.0216,4.0211,4.0207,4.0203,4.0457,4.0469,4.0482,0,0,0,0,0,0,0,0,0,0,0,0,0,3.9737,3.953,3.9986,4.0011,4.0016,4.0227,4.0231,4.0235,4.0217,4.0211,4.0206,4.0201,4.0453,4.0468,4.0483,4.0687,0,0,4.053,4.0537,0,0,0,0,0,0,0,0,3.9725,3.9754,4.0004,4.001,4.0015,4.0186,4.016,4.0387,4.0218,4.0141,4.0204,4.0198,4.0374,4.0396,4.0453,4.0699,4.071,4.0531,4.0541,4.0547,4.0552,0,0,0,0,0,0,0,3.971,3.9744,4.0082,4.0008,4.0015,4.0014,4.0039,4.0203,4.0286,4.0147,4.0146,4.0175,4.0376,4.0438,4.0459,4.0714,4.0531,4.0545,4.0554,4.056,4.1145,4.1151,0,0,0,0,0,0,3.9687,3.9731,4.0074,4.0089,3.9853,4.0027,4.0055,4.0137,4.0284,4.03,4.0179,4.0173,4.0415,4.0441,4.0468,4.072,4.0547,4.0562,4.057,4.1138,4.1146,4.1153,0,0,0,0,0,0,3.9677,3.9718,4.0065,3.991,3.9954,4.004,4.0133,4.0144,4.0207,4.0308,4.0323,4.0227,4.0412,4.0446,4.0633,4.0728,4.0568,4.0582,4.1131,4.1141,4.1149,4.1222,0,0,0,0,0,0,3.9664,3.9715,3.979,3.9912,3.9963,4.0223,4.0139,4.0153,4.0232,4.0226,4.0357,4.0373,4.041,4.0611,4.0649,4.0746,4.0594,4.1123,4.1135,4.1146,4.1212,4.1233,4.1251,0,0,0,0,0,3.9647,3.9802,3.9794,3.9836,4.0059,4.0228,4.0258,4.0294,4.024,4.0319,4.0384,4.0369,4.0711,4.063,4.0672,4.0776,4.1117,4.1132,4.1145,4.1203,4.1229,4.1251,0,0,0,0,0,0,3.9692,3.9819,3.9811,4.0009,4.0108,4.0225,4.0325,4.032,4.0439,4.0429,4.0472,4.0502,4.069,4.0752,4.0659,4.0984,4.0907,4.0931,4.0937,4.0962,4.0981,4.0964,4.0607,0,0,0,0,0,3.9724,3.9848,3.9954,4.0119,4.0168,4.0238,4.0314,4.0334,4.0439,4.0481,4.056,4.0665,4.0797,4.0883,4.1009,4.122,4.1251,4.1313,4.1333,4.1348,4.1369,4.1489,4.1519,4.12,4.1199,4.1199,0,0,3.9794,3.9878,3.9954,4.013,4.0209,4.034,4.0274,4.0414,4.0514,4.0503,4.0685,4.0747,4.0867,4.1068,4.1161,4.1125,4.1464,4.1367,4.1378,4.1391,4.1507,4.1537,4.1564,4.1209,4.1207,4.1206,0,0,3.9987,4.0062,4.0209,4.0289,4.0409,4.0455,4.049,4.0609,4.0649,4.0831,4.0827,4.0947,4.1171,4.1258,4.1332,4.1561,4.1554,4.1602,4.1705,4.1822,4.1847,4.187,4.1955,4.1985,4.1621,4.1622,4.1622,0,4.0059,4.0253,4.0286,4.0429,4.0508,4.0502,4.0654,4.0732,4.0888,4.0944,4.0901,4.1185,4.1266,4.1489,4.1545,4.1604,4.1649,4.1588,4.184,4.1864,4.1885,4.1967,4.1999,4.1627,4.1626,4.1626,4.1625,0,4.0337,4.0472,4.0578,4.0726,4.0817,4.0964,4.1023,4.1111,4.1124,4.1176,4.1364,4.146,4.1608,4.1662,4.1676,4.1889,4.1863,4.183,4.1755,4.192,4.1998,4.2029,4.1634,4.1632,4.1631,4.163,0,0,4.0565,4.0731,4.0769,4.0838,4.0971,4.1078,4.1226,4.1368,4.1445,4.1553,4.1681,4.1872,4.1843,4.1927,4.1952,4.2054,4.2234,4.2009,4.2013,4.205,4.2478,4.2503,4.2539,4.2228,4.2234,4.2239,4.2469,0,4.0774,4.1033,4.1069,4.13,4.1427,4.1426,4.1555,4.1653,4.1706,4.1825,4.1884,4.202,4.197,4.2021,4.2122,4.219,4.2321,4.2174,4.2352,4.2358,4.2323,4.2579,4.2606,4.2817,4.2499,4.2504,4.2508,0,4.1052,4.1166,4.141,4.1527,4.1582,4.1698,4.1833,4.1945,4.2057,4.2089,4.2183,4.2196,4.2353,4.227,4.249,4.239,4.2465,4.251,4.2519,4.2539,4.2444,4.2608,4.2886,4.2918,4.2555,4.2552,4.2548,0,4.1198,4.1413,4.1587,4.1645,4.1786,4.1868,4.1931,4.2038,4.2122,4.2241,4.2297,4.2433,4.2508,4.2615,4.2666,4.26,4.2885,4.2804,4.2919,4.2918,4.298,4.2976,4.3276,4.3025,4.3024,4.3024,4.3023,0,4.1429,4.1578,4.1654,4.1762,4.1931,4.1972,4.2139,4.22,4.2295,4.2418,4.2425,4.254,4.2598,4.2724,4.2765,4.2943,4.2976,4.3009,4.3019,4.301,4.3006,4.3061,4.3049,4.3032,4.303,4.3029,4.3027,0,4.162,4.1676,4.1867,4.1984,4.2018,4.2138,4.224,4.2347,4.2399,4.2554,4.2593,4.2676,4.2824,4.2884,4.3066,4.3094,4.33,4.3297,4.3261,4.3265,4.3377,4.3367,4.3725,4.3775,4.3488,4.3491,4.3493,0,4.1765,4.188,4.201,4.2091,4.2156,4.2286,4.2372,4.2418,4.2508,4.2646,4.2737,4.2884,4.3004,4.3242,4.3321,4.3461,4.3463,4.3579,4.3485,4.3473,4.3469,4.3462,4.3476,4.3597,4.36,4.3602,4.3604,0,4.2016,4.2039,4.216,4.2294,4.2395,4.2502,4.2607,4.2674,4.2737,4.2838,4.2988,4.3082,4.3267,4.3415,4.356,4.3629,4.363,4.3633,4.3668,4.3661,4.3637,4.3655,4.3312,4.3625,4.3623,4.3622,4.3621,4.362,4.2191,4.2294,4.2402,4.2539,4.2622,4.2721,4.2827,4.2892,4.3018,4.3171,4.3191,4.3353,4.3466,4.3661,4.3736,4.3866,4.3836,4.3885,4.3899,4.3911,4.3919,4.3614,4.3892,4.3892,4.3891,4.3891,4.389,0,4.2446,4.2515,4.264,4.2786,4.2895,4.2882,4.2998,4.3091,4.3232,4.3336,4.3454,4.363,4.3773,4.3864,4.401,4.4097,4.4101,4.4134,4.413,4.4146,4.3936,4.3893,4.4129,4.4129,4.4129,4.4128,4.4128,4.4128,4.2591,4.2766,4.2802,4.302,4.309,4.3246,4.3315,4.3407,4.349,4.3684,4.3803,4.386,4.3961,4.4114,4.4247,4.4271,4.4326,4.4361,4.4383,4.4185,4.4161,4.4137,4.4097,4.4372,4.4372,4.4583,4.4585,4.4587]},{"header":{"parameterUnit":"m.s-1","parameterCategory":1,"la1":30.2991,"la2":30.254,"lo1":-89.0895,"lo2":-89.0444,"dx":0.0017,"dy":0.0017,"nx":28,"ny":28,"refTime":"2023-01-23T03:00:00:Z","depth":0,"parameterNumber":3,"parameterNumberName":"V-component_of_WINDS"},"data":[0,0,0,0,0,0,0,0,0,0,0,0,0,0,0,0,0,0,0,0,0,0,0,0,0,0,0,0,0,0,0,0,0,0,0,0,0,0,0,0,0,0,0,0,0,0,0,0,0,0,0,0,0,0,0,0,0,0,-2.6959,-2.6958,0,-2.6928,-2.6928,-2.6927,-2.6858,-2.6857,-2.6855,-2.6854,-2.6824,-2.6824,-2.6825,0,0,0,0,0,0,0,0,0,0,0,0,0,-2.6959,-2.6959,-2.6959,-2.6958,-2.6958,-2.6928,-2.6928,-2.6927,-2.6859,-2.6857,-2.6855,-2.6853,-2.6824,-2.6824,-2.6825,0,0,0,0,0,0,0,0,0,0,0,0,0,-2.6946,-2.6959,-2.6959,-2.692,-2.6916,-2.6928,-2.6928,-2.6927,-2.6859,-2.6857,-2.6855,-2.6853,-2.6823,-2.6824,-2.6825,-2.6872,0,0,-2.6827,-2.6828,0,0,0,0,0,0,0,0,-2.6947,-2.6947,-2.6926,-2.6923,-2.6919,-2.6895,-2.6916,-2.6909,-2.6859,-2.6881,-2.6854,-2.6852,-2.6849,-2.6848,-2.6847,-2.6871,-2.687,-2.6827,-2.6828,-2.6828,-2.6828,0,0,0,0,0,0,0,-2.6948,-2.6947,-2.6947,-2.6926,-2.6921,-2.6904,-2.69,-2.6915,-2.6877,-2.6879,-2.6874,-2.6871,-2.6847,-2.6846,-2.6845,-2.6869,-2.6827,-2.6828,-2.6829,-2.6829,-2.693,-2.6932,0,0,0,0,0,0,-2.6954,-2.6949,-2.6948,-2.6946,-2.6928,-2.6906,-2.6902,-2.6905,-2.6877,-2.6871,-2.6873,-2.6868,-2.6846,-2.6845,-2.6844,-2.6897,-2.6828,-2.6829,-2.6829,-2.6927,-2.693,-2.6932,0,0,0,0,0,0,-2.6955,-2.6955,-2.6949,-2.6946,-2.6944,-2.6908,-2.6912,-2.6905,-2.6904,-2.6872,-2.6866,-2.6879,-2.6844,-2.6843,-2.6865,-2.6895,-2.6829,-2.683,-2.6925,-2.6928,-2.6931,-2.7003,0,0,0,0,0,0,-2.6955,-2.6956,-2.6973,-2.6947,-2.6944,-2.6971,-2.6914,-2.6906,-2.6906,-2.6899,-2.6876,-2.6871,-2.6842,-2.6865,-2.6866,-2.6895,-2.6831,-2.6922,-2.6926,-2.693,-2.6998,-2.7009,-2.7018,0,0,0,0,0,-2.6955,-2.6995,-2.6974,-2.6975,-2.6965,-2.6973,-2.6971,-2.6937,-2.6908,-2.6926,-2.6905,-2.6871,-2.6892,-2.6868,-2.6869,-2.6898,-2.692,-2.6925,-2.693,-2.6994,-2.7007,-2.7018,0,0,0,0,0,0,-2.7027,-2.6991,-2.6967,-2.7,-2.699,-2.6961,-2.6982,-2.6952,-2.6951,-2.6944,-2.6903,-2.6899,-2.6926,-2.6914,-2.6888,-2.6942,-2.69,-2.6906,-2.6949,-2.696,-2.697,-2.6972,-2.6831,0,0,0,0,0,-2.7046,-2.7055,-2.7023,-2.7055,-2.7051,-2.7018,-2.7019,-2.6994,-2.6982,-2.6978,-2.6959,-2.6949,-2.6952,-2.6956,-2.6958,-2.6996,-2.699,-2.7017,-2.7027,-2.7035,-2.704,-2.7058,-2.707,-2.6949,-2.6949,-2.6949,0,0,-2.7086,-2.7068,-2.7076,-2.7069,-2.7058,-2.7068,-2.7014,-2.7027,-2.7034,-2.698,-2.6999,-2.6985,-2.6971,-2.7002,-2.7014,-2.6992,-2.7072,-2.7041,-2.7048,-2.7049,-2.7065,-2.7076,-2.7087,-2.6952,-2.6952,-2.6951,0,0,-2.7165,-2.7152,-2.7176,-2.7166,-2.715,-2.7128,-2.7134,-2.7109,-2.7097,-2.7117,-2.7076,-2.7083,-2.7091,-2.7082,-2.7079,-2.7154,-2.7122,-2.7156,-2.7207,-2.7225,-2.7235,-2.7243,-2.7269,-2.7278,-2.7161,-2.7161,-2.7161,0,-2.7217,-2.723,-2.7193,-2.7208,-2.7206,-2.7157,-2.7181,-2.7173,-2.7159,-2.7159,-2.7135,-2.7143,-2.713,-2.7157,-2.7175,-2.7174,-2.718,-2.7158,-2.7236,-2.7244,-2.7251,-2.7275,-2.7285,-2.7165,-2.7165,-2.7164,-2.7164,0,-2.7294,-2.7304,-2.7326,-2.7312,-2.7313,-2.7333,-2.7299,-2.7304,-2.7279,-2.7259,-2.7278,-2.7261,-2.7258,-2.7263,-2.7239,-2.7287,-2.7273,-2.7244,-2.7201,-2.7267,-2.7289,-2.7298,-2.7171,-2.7169,-2.7168,-2.7167,0,0,-2.7417,-2.7382,-2.7391,-2.7384,-2.7362,-2.7369,-2.7387,-2.7383,-2.7388,-2.738,-2.7393,-2.7401,-2.7372,-2.7369,-2.7343,-2.736,-2.7419,-2.7327,-2.7326,-2.7344,-2.7469,-2.7491,-2.7503,-2.7398,-2.74,-2.7401,-2.747,0,-2.7489,-2.7517,-2.7484,-2.7518,-2.7527,-2.748,-2.7495,-2.7483,-2.7465,-2.7469,-2.7449,-2.7455,-2.7418,-2.7415,-2.7429,-2.7409,-2.7443,-2.7403,-2.741,-2.741,-2.7414,-2.7514,-2.7538,-2.7604,-2.7479,-2.748,-2.7481,0,-2.7578,-2.7573,-2.7608,-2.7584,-2.7586,-2.76,-2.7594,-2.7599,-2.7585,-2.757,-2.7566,-2.7535,-2.755,-2.7509,-2.753,-2.7503,-2.7504,-2.7494,-2.7496,-2.7495,-2.7449,-2.7515,-2.7625,-2.7634,-2.7494,-2.7493,-2.7492,0,-2.7663,-2.7665,-2.7686,-2.7682,-2.7654,-2.7665,-2.7654,-2.7638,-2.7637,-2.7632,-2.7632,-2.7629,-2.7627,-2.7625,-2.7594,-2.7567,-2.7618,-2.7575,-2.7606,-2.7607,-2.7618,-2.7618,-2.7729,-2.762,-2.762,-2.762,-2.762,0,-2.7747,-2.777,-2.7724,-2.7737,-2.7761,-2.7723,-2.7749,-2.7733,-2.7719,-2.7728,-2.7687,-2.7697,-2.7655,-2.766,-2.7636,-2.7656,-2.7656,-2.7644,-2.7638,-2.7648,-2.7649,-2.7647,-2.7641,-2.7623,-2.7622,-2.7622,-2.7621,0,-2.7845,-2.7815,-2.7835,-2.7807,-2.78,-2.782,-2.7795,-2.7806,-2.7785,-2.7797,-2.7798,-2.7765,-2.7768,-2.7737,-2.7735,-2.7719,-2.775,-2.7736,-2.7755,-2.775,-2.7783,-2.778,-2.7896,-2.7908,-2.7793,-2.7794,-2.7795,0,-2.7901,-2.7917,-2.7891,-2.7894,-2.7885,-2.789,-2.7889,-2.7852,-2.7853,-2.7838,-2.7851,-2.7851,-2.7849,-2.7857,-2.7833,-2.7831,-2.7816,-2.7856,-2.7815,-2.7824,-2.7815,-2.7814,-2.7815,-2.7865,-2.7866,-2.7868,-2.7869,0,-2.8002,-2.7986,-2.7987,-2.7982,-2.7982,-2.7977,-2.7969,-2.7974,-2.7933,-2.7937,-2.7939,-2.7938,-2.7935,-2.7936,-2.7929,-2.7918,-2.7887,-2.7882,-2.7889,-2.7899,-2.7909,-2.7903,-2.7777,-2.7879,-2.7878,-2.7877,-2.7877,-2.7876,-2.808,-2.8092,-2.8075,-2.8077,-2.8067,-2.806,-2.8069,-2.8048,-2.805,-2.8045,-2.8023,-2.803,-2.8014,-2.8002,-2.7993,-2.7998,-2.7978,-2.7988,-2.7991,-2.7994,-2.7999,-2.7909,-2.7996,-2.7996,-2.7996,-2.7995,-2.7995,0,-2.8179,-2.8165,-2.8167,-2.8157,-2.8158,-2.8128,-2.8118,-2.8121,-2.8127,-2.8115,-2.8114,-2.8117,-2.8117,-2.8093,-2.809,-2.8098,-2.8083,-2.8098,-2.8097,-2.8095,-2.8018,-2.8011,-2.811,-2.811,-2.811,-2.811,-2.811,-2.811,-2.823,-2.8249,-2.8231,-2.8244,-2.8231,-2.8236,-2.8233,-2.8226,-2.8216,-2.8221,-2.8221,-2.8205,-2.8188,-2.8183,-2.8182,-2.8175,-2.8175,-2.8195,-2.8183,-2.8111,-2.81,-2.809,-2.8084,-2.8196,-2.8196,-2.8259,-2.826,-2.826]}]]